sat.trackr.live / text

‹ back to catalog

STARLINK-2647

NORAD 48658 · 2021-044W

PAYLOAD ACTIVE UNKNOWN

§ Identity

Operator
Country
US
Launch date
2021-05-26
Launch site
AFETR
Launch vehicle
Mass (kg)
RCS (m²)

Purposes: comms

External: N2YO · Heavens-Above · Gunter

§ Orbital elements

Epoch: 2026-05-25T05:12:28.633248Z

Period
94.10 min
Inclination
53.1571°
Eccentricity
0.0002957
Mean motion
15.30296676 rev/d
Perigee alt
472.9 km
Apogee alt
477.0 km
Semi-major
6,853.1 km
B*
8.5679e-4
RAAN
118.3778°
Arg perigee
127.1310°
Mean anomaly
232.9962°
Rev number
27,554

§ Raw data

STARLINK-26471 48658U 21044W   26145.21699807  .00025180  00000+0  85679-3 0  99952 48658  53.1571 118.3778 0002957 127.1310 232.9962 15.30296676275549

JSON: /api/v1/satellites/48658 · /tle

For live sub-satellite position, see the globe view (requires WebGL).

§ Visibility from observer

Set your observer location to see the next 7 days of passes ≥ 10°. The values pass through the URL so the page stays shareable.

No JS? Fill the form by hand. The geolocation button needs JavaScript.